Year,Month,Day,Hour,Minute,Value (Times are PST for temperature in C)
2017,03,04,00,00,3.80
2017,03,04,00,01,3.80
2017,03,04,00,02,3.80
2017,03,04,00,03,3.70
2017,03,04,00,04,3.70
2017,03,04,00,05,3.70
2017,03,04,00,06,3.70
2017,03,04,00,07,3.80
2017,03,04,00,08,3.80
2017,03,04,00,09,3.80
2017,03,04,00,10,3.80
2017,03,04,00,11,3.70
2017,03,04,00,12,3.70
2017,03,04,00,13,3.70
2017,03,04,00,14,3.70
2017,03,04,00,15,3.70
2017,03,04,00,16,3.70
2017,03,04,00,17,3.70
2017,03,04,00,18,3.70
2017,03,04,00,19,3.70
2017,03,04,00,20,3.60
2017,03,04,00,21,3.60
2017,03,04,00,22,3.60
2017,03,04,00,23,3.60
2017,03,04,00,24,3.60
2017,03,04,00,25,3.60
2017,03,04,00,26,3.60
2017,03,04,00,27,3.60
2017,03,04,00,28,3.60
2017,03,04,00,29,3.60
2017,03,04,00,30,3.70
2017,03,04,00,31,3.60
2017,03,04,00,32,3.60
2017,03,04,00,33,3.60
2017,03,04,00,34,3.60
2017,03,04,00,35,3.60
2017,03,04,00,36,3.60
2017,03,04,00,37,3.60
2017,03,04,00,38,3.60
2017,03,04,00,39,3.60
2017,03,04,00,40,3.50
2017,03,04,00,41,3.50
2017,03,04,00,42,3.50
2017,03,04,00,43,3.50
2017,03,04,00,44,3.50
2017,03,04,00,45,3.40
2017,03,04,00,46,3.40
2017,03,04,00,47,3.40
2017,03,04,00,48,3.40
2017,03,04,00,49,3.40
2017,03,04,00,50,3.40
2017,03,04,00,51,3.40
2017,03,04,00,52,3.40
2017,03,04,00,53,3.40
2017,03,04,00,54,3.40
2017,03,04,00,55,3.40
2017,03,04,00,56,3.40
2017,03,04,00,57,3.40
2017,03,04,00,58,3.40
2017,03,04,00,59,3.40
2017,03,04,01,00,3.40
2017,03,04,01,01,3.40
2017,03,04,01,02,3.40
2017,03,04,01,03,3.40
2017,03,04,01,04,3.40
2017,03,04,01,05,3.40
2017,03,04,01,06,3.40
2017,03,04,01,07,3.40
2017,03,04,01,08,3.40
2017,03,04,01,09,3.40
2017,03,04,01,10,3.30
2017,03,04,01,11,3.30
2017,03,04,01,12,3.30
2017,03,04,01,13,3.30
2017,03,04,01,14,3.30
2017,03,04,01,15,3.30
2017,03,04,01,16,3.30
2017,03,04,01,17,3.20
2017,03,04,01,18,3.20
2017,03,04,01,19,3.20
2017,03,04,01,20,3.20
2017,03,04,01,21,3.20
2017,03,04,01,22,3.20
2017,03,04,01,23,3.20
2017,03,04,01,24,3.20
2017,03,04,01,25,3.20
2017,03,04,01,26,3.20
2017,03,04,01,27,3.20
2017,03,04,01,28,3.20
2017,03,04,01,29,3.20
2017,03,04,01,30,3.20
2017,03,04,01,31,3.20
2017,03,04,01,32,3.20
2017,03,04,01,33,3.20
2017,03,04,01,34,3.30
2017,03,04,01,35,3.30
2017,03,04,01,36,3.30
2017,03,04,01,37,3.30
2017,03,04,01,38,3.30
2017,03,04,01,39,3.30
2017,03,04,01,40,3.40
2017,03,04,01,41,3.40
2017,03,04,01,42,3.40
2017,03,04,01,43,3.40
2017,03,04,01,44,3.30
2017,03,04,01,45,3.30
2017,03,04,01,46,3.30
2017,03,04,01,47,3.30
2017,03,04,01,48,3.30
2017,03,04,01,49,3.30
2017,03,04,01,50,3.30
2017,03,04,01,51,3.30
2017,03,04,01,52,3.30
2017,03,04,01,53,3.30
2017,03,04,01,54,3.30
2017,03,04,01,55,3.20
2017,03,04,01,56,3.30
2017,03,04,01,57,3.20
2017,03,04,01,58,3.20
2017,03,04,01,59,3.20
2017,03,04,02,00,3.20
2017,03,04,02,01,3.10
2017,03,04,02,02,3.10
2017,03,04,02,03,3.10
2017,03,04,02,04,3.10
2017,03,04,02,05,3.10
2017,03,04,02,06,3.10
2017,03,04,02,07,3.10
2017,03,04,02,08,3.10
2017,03,04,02,09,3.10
2017,03,04,02,10,3.10
2017,03,04,02,11,3.00
2017,03,04,02,12,3.00
2017,03,04,02,13,3.00
2017,03,04,02,14,3.00
2017,03,04,02,15,3.00
2017,03,04,02,16,3.00
2017,03,04,02,17,3.00
2017,03,04,02,18,2.90
2017,03,04,02,19,2.90
2017,03,04,02,20,2.90
2017,03,04,02,21,2.90
2017,03,04,02,22,2.90
2017,03,04,02,23,2.90
2017,03,04,02,24,2.90
2017,03,04,02,25,2.90
2017,03,04,02,26,2.90
2017,03,04,02,27,2.90
2017,03,04,02,28,2.90
2017,03,04,02,29,2.80
2017,03,04,02,30,2.80
2017,03,04,02,31,2.80
2017,03,04,02,32,2.80
2017,03,04,02,33,2.80
2017,03,04,02,34,2.80
2017,03,04,02,35,2.80
2017,03,04,02,36,2.80
2017,03,04,02,37,2.80
2017,03,04,02,38,2.80
2017,03,04,02,39,2.80
2017,03,04,02,40,2.80
2017,03,04,02,41,2.80
2017,03,04,02,42,2.80
2017,03,04,02,43,2.80
2017,03,04,02,44,2.80
2017,03,04,02,45,2.80
2017,03,04,02,46,2.80
2017,03,04,02,47,2.80
2017,03,04,02,48,2.70
2017,03,04,02,49,2.80
2017,03,04,02,50,2.80
2017,03,04,02,51,2.70
2017,03,04,02,52,2.70
2017,03,04,02,53,2.80
2017,03,04,02,54,2.80
2017,03,04,02,55,2.80
2017,03,04,02,56,2.80
2017,03,04,02,57,2.80
2017,03,04,02,58,2.80
2017,03,04,02,59,2.70
2017,03,04,03,00,2.70
2017,03,04,03,01,2.70
2017,03,04,03,02,2.70
2017,03,04,03,03,2.70
2017,03,04,03,04,2.70
2017,03,04,03,05,2.80
2017,03,04,03,06,2.80
2017,03,04,03,07,2.80
2017,03,04,03,08,2.80
2017,03,04,03,09,2.80
2017,03,04,03,10,2.80
2017,03,04,03,11,2.80
2017,03,04,03,12,2.80
2017,03,04,03,13,2.80
2017,03,04,03,14,2.80
2017,03,04,03,15,2.80
2017,03,04,03,16,2.80
2017,03,04,03,17,2.80
2017,03,04,03,18,2.80
2017,03,04,03,19,2.80
2017,03,04,03,20,2.80
2017,03,04,03,21,2.90
2017,03,04,03,22,2.90
2017,03,04,03,23,2.90
2017,03,04,03,24,2.90
2017,03,04,03,25,2.90
2017,03,04,03,26,2.90
2017,03,04,03,27,2.90
2017,03,04,03,28,2.90
2017,03,04,03,29,2.90
2017,03,04,03,30,2.90
2017,03,04,03,31,2.90
2017,03,04,03,32,2.90
2017,03,04,03,33,2.90
2017,03,04,03,34,2.90
2017,03,04,03,35,2.90
2017,03,04,03,36,2.90
2017,03,04,03,37,2.90
2017,03,04,03,38,2.90
2017,03,04,03,39,2.90
2017,03,04,03,40,2.80
2017,03,04,03,41,2.80
2017,03,04,03,42,2.80
2017,03,04,03,43,2.80
2017,03,04,03,44,2.80
2017,03,04,03,45,2.80
2017,03,04,03,46,2.80
2017,03,04,03,47,2.90
2017,03,04,03,48,2.90
2017,03,04,03,49,2.90
2017,03,04,03,50,2.90
2017,03,04,03,51,2.90
2017,03,04,03,52,2.90
2017,03,04,03,53,2.80
2017,03,04,03,54,2.90
2017,03,04,03,55,2.80
2017,03,04,03,56,2.80
2017,03,04,03,57,2.90
2017,03,04,03,58,2.80
2017,03,04,03,59,2.80
2017,03,04,04,00,2.80
2017,03,04,04,01,2.80
2017,03,04,04,02,2.80
2017,03,04,04,03,2.80
2017,03,04,04,04,2.80
2017,03,04,04,05,2.80
2017,03,04,04,06,2.80
2017,03,04,04,07,2.80
2017,03,04,04,08,2.80
2017,03,04,04,09,2.70
2017,03,04,04,10,2.70
2017,03,04,04,11,2.70
2017,03,04,04,12,2.70
2017,03,04,04,13,2.70
2017,03,04,04,14,2.70
2017,03,04,04,15,2.70
2017,03,04,04,16,2.60
2017,03,04,04,17,2.60
2017,03,04,04,18,2.60
2017,03,04,04,19,2.60
2017,03,04,04,20,2.50
2017,03,04,04,21,2.50
2017,03,04,04,22,2.50
2017,03,04,04,23,2.40
2017,03,04,04,24,2.40
2017,03,04,04,25,2.40
2017,03,04,04,26,2.40
2017,03,04,04,27,2.40
2017,03,04,04,28,2.40
2017,03,04,04,29,2.30
2017,03,04,04,30,2.30
2017,03,04,04,31,2.30
2017,03,04,04,32,2.30
2017,03,04,04,33,2.30
2017,03,04,04,34,2.30
2017,03,04,04,35,2.20
2017,03,04,04,36,2.20
2017,03,04,04,37,2.20
2017,03,04,04,38,2.20
2017,03,04,04,39,2.20
2017,03,04,04,40,2.20
2017,03,04,04,41,2.10
2017,03,04,04,42,2.10
2017,03,04,04,43,2.10
2017,03,04,04,44,2.00
2017,03,04,04,45,2.00
2017,03,04,04,46,1.90
2017,03,04,04,47,1.90
2017,03,04,04,48,1.90
2017,03,04,04,49,1.90
2017,03,04,04,50,1.90
2017,03,04,04,51,1.80
2017,03,04,04,52,1.80
2017,03,04,04,53,1.80
2017,03,04,04,54,1.80
2017,03,04,04,55,1.70
2017,03,04,04,56,1.70
2017,03,04,04,57,1.60
2017,03,04,04,58,1.60
2017,03,04,04,59,1.60
2017,03,04,05,00,1.60
2017,03,04,05,01,1.50
2017,03,04,05,02,1.50
2017,03,04,05,03,1.50
2017,03,04,05,04,1.50
2017,03,04,05,05,1.50
2017,03,04,05,06,1.40
2017,03,04,05,07,1.40
2017,03,04,05,08,1.30
2017,03,04,05,09,1.30
2017,03,04,05,10,1.30
2017,03,04,05,11,1.30
2017,03,04,05,12,1.30
2017,03,04,05,13,1.20
2017,03,04,05,14,1.20
2017,03,04,05,15,1.10
2017,03,04,05,16,1.10
2017,03,04,05,17,1.10
2017,03,04,05,18,1.00
2017,03,04,05,19,1.00
2017,03,04,05,20,1.00
2017,03,04,05,21,0.90
2017,03,04,05,22,0.90
2017,03,04,05,23,0.90
2017,03,04,05,24,0.90
2017,03,04,05,25,0.80
2017,03,04,05,26,0.80
2017,03,04,05,27,0.80
2017,03,04,05,28,0.80
2017,03,04,05,29,0.70
2017,03,04,05,30,0.70
2017,03,04,05,31,0.70
2017,03,04,05,32,0.70
2017,03,04,05,33,0.60
2017,03,04,05,34,0.60
2017,03,04,05,35,0.60
2017,03,04,05,36,0.60
2017,03,04,05,37,0.50
2017,03,04,05,38,0.50
2017,03,04,05,39,0.40
2017,03,04,05,40,0.40
2017,03,04,05,41,0.40
2017,03,04,05,42,0.40
2017,03,04,05,43,0.40
2017,03,04,05,44,0.30
2017,03,04,05,45,0.30
2017,03,04,05,46,0.30
2017,03,04,05,47,0.30
2017,03,04,05,48,0.30
2017,03,04,05,49,0.30
2017,03,04,05,50,0.30
2017,03,04,05,51,0.20
2017,03,04,05,52,0.20
2017,03,04,05,53,0.20
2017,03,04,05,54,0.10
2017,03,04,05,55,0.10
2017,03,04,05,56,0.10
2017,03,04,05,57,0.10
2017,03,04,05,58,0.10
2017,03,04,05,59,0.00
2017,03,04,06,00,0.00
2017,03,04,06,01,-0.10
2017,03,04,06,02,-0.10
2017,03,04,06,03,-0.20
2017,03,04,06,04,-0.20
2017,03,04,06,05,-0.20
2017,03,04,06,06,-0.20
2017,03,04,06,07,-0.20
2017,03,04,06,08,-0.20
2017,03,04,06,09,-0.20
2017,03,04,06,10,-0.20
2017,03,04,06,11,-0.20
2017,03,04,06,12,-0.20
2017,03,04,06,13,-0.20
2017,03,04,06,14,-0.20
2017,03,04,09,55,5.30
2017,03,04,09,56,5.30
2017,03,04,09,57,5.30
2017,03,04,09,58,5.30
2017,03,04,09,59,5.30
2017,03,04,10,00,5.30
2017,03,04,10,01,5.40
2017,03,04,10,02,5.40
2017,03,04,10,03,5.50
2017,03,04,10,04,5.50
2017,03,04,10,05,5.50
2017,03,04,10,06,5.50
2017,03,04,10,07,5.50
2017,03,04,10,08,5.60
2017,03,04,10,09,5.60
2017,03,04,10,10,5.60
2017,03,04,10,11,5.60
2017,03,04,10,12,5.60
2017,03,04,10,13,5.60
2017,03,04,10,14,5.60
2017,03,04,10,15,5.60
2017,03,04,10,16,5.50
2017,03,04,10,17,5.50
2017,03,04,10,18,5.50
2017,03,04,10,19,5.50
2017,03,04,10,20,5.50
2017,03,04,10,21,5.60
2017,03,04,10,22,5.60
2017,03,04,10,23,5.60
2017,03,04,10,24,5.50
2017,03,04,10,25,5.50
2017,03,04,10,26,5.40
2017,03,04,10,27,5.40
2017,03,04,10,28,5.40
2017,03,04,10,29,5.40
2017,03,04,10,30,5.30
2017,03,04,10,31,5.30
2017,03,04,10,32,5.30
2017,03,04,10,33,5.30
2017,03,04,10,34,5.30
2017,03,04,10,35,5.30
2017,03,04,10,36,5.30
2017,03,04,10,37,5.30
2017,03,04,10,38,5.30
2017,03,04,10,39,5.30
2017,03,04,10,40,5.30
2017,03,04,10,41,5.30
2017,03,04,10,42,5.30
2017,03,04,10,43,5.30
2017,03,04,10,44,5.30
2017,03,04,10,45,5.30
2017,03,04,10,46,5.30
2017,03,04,10,47,5.30
2017,03,04,10,48,5.30
2017,03,04,10,49,5.30
2017,03,04,10,50,5.40
2017,03,04,10,51,5.40
2017,03,04,10,52,5.50
2017,03,04,10,53,5.60
2017,03,04,10,54,5.70
2017,03,04,10,55,5.80
2017,03,04,10,56,5.90
2017,03,04,10,57,5.90
2017,03,04,10,58,5.90
2017,03,04,10,59,6.00
2017,03,04,11,00,6.00
2017,03,04,11,01,6.00
2017,03,04,11,02,6.00
2017,03,04,11,03,6.00
2017,03,04,11,04,5.90
2017,03,04,11,05,5.80
2017,03,04,11,06,5.80
2017,03,04,11,07,5.70
2017,03,04,11,08,5.60
2017,03,04,11,09,5.50
2017,03,04,11,10,5.50
2017,03,04,11,11,5.40
2017,03,04,11,12,5.30
2017,03,04,11,13,5.20
2017,03,04,11,14,5.20
2017,03,04,11,15,5.20
2017,03,04,11,16,5.20
2017,03,04,11,17,5.20
2017,03,04,11,18,5.10
2017,03,04,11,19,5.10
2017,03,04,11,20,5.00
2017,03,04,11,21,5.00
2017,03,04,11,22,5.00
2017,03,04,11,23,4.90
2017,03,04,11,24,4.90
2017,03,04,11,25,4.90
2017,03,04,11,26,4.90
2017,03,04,11,27,4.90
2017,03,04,11,28,4.90
2017,03,04,11,29,4.90
2017,03,04,11,30,4.90
2017,03,04,11,31,4.90
2017,03,04,11,32,4.90
2017,03,04,11,33,4.90
2017,03,04,11,34,4.90
2017,03,04,11,35,4.90
2017,03,04,11,36,4.90
2017,03,04,11,37,4.90
2017,03,04,11,38,4.80
2017,03,04,11,39,4.80
2017,03,04,11,40,4.80
2017,03,04,11,41,4.80
2017,03,04,11,42,4.80
2017,03,04,11,43,4.80
2017,03,04,11,44,4.80
2017,03,04,11,45,4.80
2017,03,04,11,46,4.80
2017,03,04,11,47,4.80
2017,03,04,11,48,4.80
2017,03,04,11,49,4.80
2017,03,04,11,50,4.80
2017,03,04,11,51,4.80
2017,03,04,11,52,4.80
2017,03,04,11,53,4.80
2017,03,04,11,54,4.80
2017,03,04,11,55,4.80
2017,03,04,11,56,4.80
2017,03,04,11,57,4.80
2017,03,04,11,58,4.80
2017,03,04,11,59,4.80
2017,03,04,12,00,4.80
2017,03,04,12,01,4.80
2017,03,04,12,02,4.80
2017,03,04,12,03,4.80
2017,03,04,12,04,4.80
2017,03,04,12,05,4.80
2017,03,04,12,06,4.80
2017,03,04,12,07,4.80
2017,03,04,12,08,4.80
2017,03,04,12,09,4.90
2017,03,04,12,10,4.90
2017,03,04,12,11,4.90
2017,03,04,12,12,4.90
2017,03,04,12,13,4.90
2017,03,04,12,14,4.90
2017,03,04,12,15,4.90
2017,03,04,12,16,4.90
2017,03,04,12,17,4.90
2017,03,04,12,18,4.90
2017,03,04,12,19,4.90
2017,03,04,12,20,4.90
2017,03,04,12,21,5.00
2017,03,04,12,22,5.00
2017,03,04,12,23,5.10
2017,03,04,12,24,5.10
2017,03,04,12,25,5.20
2017,03,04,12,26,5.20
2017,03,04,12,27,5.30
2017,03,04,12,28,5.40
2017,03,04,12,29,5.50
2017,03,04,12,30,5.50
2017,03,04,12,31,5.60
2017,03,04,12,32,5.60
2017,03,04,12,33,5.70
2017,03,04,12,34,5.70
2017,03,04,12,35,5.70
2017,03,04,12,36,5.70
2017,03,04,12,37,5.70
2017,03,04,12,38,5.70
2017,03,04,12,39,5.80
2017,03,04,12,40,5.80
2017,03,04,12,41,5.80
2017,03,04,12,42,5.80
2017,03,04,12,43,5.80
2017,03,04,12,44,5.90
2017,03,04,12,45,5.90
2017,03,04,12,46,5.90
2017,03,04,12,47,5.80
2017,03,04,12,48,5.80
2017,03,04,12,49,5.70
2017,03,04,12,50,5.70
2017,03,04,12,51,5.70
2017,03,04,12,52,5.70
2017,03,04,12,53,5.60
2017,03,04,12,54,5.60
2017,03,04,12,55,5.60
2017,03,04,12,56,5.60
2017,03,04,12,57,5.60
2017,03,04,12,58,5.60
2017,03,04,12,59,5.70
2017,03,04,13,00,5.80
2017,03,04,13,01,5.80
2017,03,04,13,02,5.90
2017,03,04,13,03,5.90
2017,03,04,13,04,5.90
2017,03,04,13,05,5.90
2017,03,04,13,06,6.00
2017,03,04,13,07,6.00
2017,03,04,13,08,6.00
2017,03,04,13,09,6.00
2017,03,04,13,10,6.00
2017,03,04,13,11,6.00
2017,03,04,13,12,6.00
2017,03,04,13,13,6.00
2017,03,04,13,14,5.90
2017,03,04,13,15,5.90
2017,03,04,13,16,5.90
2017,03,04,13,17,5.80
2017,03,04,13,18,5.80
2017,03,04,13,19,5.80
2017,03,04,13,20,5.90
2017,03,04,13,21,5.90
2017,03,04,13,22,5.90
2017,03,04,13,23,6.00
2017,03,04,13,24,6.00
2017,03,04,13,25,6.10
2017,03,04,13,26,6.10
2017,03,04,13,27,6.10
2017,03,04,13,28,6.10
2017,03,04,13,29,6.00
2017,03,04,13,30,6.00
2017,03,04,13,31,6.00
2017,03,04,13,32,6.00
2017,03,04,13,33,6.00
2017,03,04,13,34,6.00
2017,03,04,13,35,5.90
2017,03,04,13,36,5.90
2017,03,04,13,37,5.90
2017,03,04,13,38,5.90
2017,03,04,13,39,5.80
2017,03,04,13,40,5.80
2017,03,04,13,41,5.80
2017,03,04,13,42,5.80
2017,03,04,13,43,5.80
2017,03,04,13,44,5.70
2017,03,04,13,45,5.70
2017,03,04,13,46,5.70
2017,03,04,13,47,5.60
2017,03,04,13,48,5.60
2017,03,04,13,49,5.60
2017,03,04,13,50,5.50
2017,03,04,13,51,5.50
2017,03,04,13,52,5.50
2017,03,04,13,53,5.50
2017,03,04,13,54,5.50
2017,03,04,13,55,5.50
2017,03,04,13,56,5.40
2017,03,04,13,57,5.40
2017,03,04,13,58,5.40
2017,03,04,13,59,5.40
2017,03,04,14,00,5.40
2017,03,04,14,01,5.40
2017,03,04,14,02,5.40
2017,03,04,14,03,5.40
2017,03,04,14,04,5.40
2017,03,04,14,05,5.40
2017,03,04,14,06,5.50
2017,03,04,14,07,5.50
2017,03,04,14,08,5.50
2017,03,04,14,09,5.50
2017,03,04,14,10,5.50
2017,03,04,14,11,5.50
2017,03,04,14,12,5.50
2017,03,04,14,13,5.50
2017,03,04,14,14,5.40
2017,03,04,14,15,5.40
2017,03,04,14,16,5.40
2017,03,04,14,17,5.40
2017,03,04,14,18,5.40
2017,03,04,14,19,5.40
2017,03,04,14,20,5.40
2017,03,04,14,21,5.40
2017,03,04,14,22,5.40
2017,03,04,14,23,5.40
2017,03,04,14,24,5.40
2017,03,04,14,25,5.50
2017,03,04,14,26,5.50
2017,03,04,14,27,5.60
2017,03,04,14,28,5.60
2017,03,04,14,29,5.60
2017,03,04,14,30,5.70
2017,03,04,14,31,5.70
2017,03,04,14,32,5.70
2017,03,04,14,33,5.80
2017,03,04,14,34,5.80
2017,03,04,14,35,5.80
2017,03,04,14,36,5.80
2017,03,04,14,37,5.80
2017,03,04,14,38,5.80
2017,03,04,14,39,5.90
2017,03,04,14,40,5.90
2017,03,04,14,41,6.00
2017,03,04,14,42,6.00
2017,03,04,14,43,6.00
2017,03,04,14,44,6.10
2017,03,04,14,45,6.00
2017,03,04,14,46,6.00
2017,03,04,14,47,6.00
2017,03,04,14,48,6.00
2017,03,04,14,49,6.00
2017,03,04,14,50,6.10
2017,03,04,14,51,6.10
2017,03,04,14,52,6.20
2017,03,04,14,53,6.20
2017,03,04,14,54,6.20
2017,03,04,14,55,6.20
2017,03,04,14,56,6.20
2017,03,04,14,57,6.20
2017,03,04,14,58,6.20
2017,03,04,14,59,6.10
2017,03,04,15,00,6.10
2017,03,04,15,01,6.10
2017,03,04,15,02,6.00
2017,03,04,15,03,6.00
2017,03,04,15,04,6.00
2017,03,04,15,05,6.00
2017,03,04,15,06,6.00
2017,03,04,15,07,6.00
2017,03,04,15,08,6.00
2017,03,04,15,09,6.00
2017,03,04,15,10,6.10
2017,03,04,15,11,6.10
2017,03,04,15,12,6.20
2017,03,04,15,13,6.20
2017,03,04,15,14,6.20
2017,03,04,15,15,6.20
2017,03,04,15,16,6.20
2017,03,04,15,17,6.30
2017,03,04,15,18,6.30
2017,03,04,15,19,6.30
2017,03,04,15,20,6.30
2017,03,04,15,21,6.30
2017,03,04,15,22,6.30
2017,03,04,15,23,6.30
2017,03,04,15,24,6.30
2017,03,04,15,25,6.20
2017,03,04,15,26,6.20
2017,03,04,15,27,6.20
2017,03,04,15,28,6.20
2017,03,04,15,29,6.20
2017,03,04,15,30,6.20
2017,03,04,15,31,6.20
2017,03,04,15,32,6.20
2017,03,04,15,33,6.20
2017,03,04,15,34,6.20
2017,03,04,15,35,6.20
2017,03,04,15,36,6.10
2017,03,04,15,37,6.10
2017,03,04,15,38,6.10
2017,03,04,15,39,6.10
2017,03,04,15,40,6.10
2017,03,04,15,41,6.10
2017,03,04,15,42,6.20
2017,03,04,15,43,6.20
2017,03,04,15,44,6.20
2017,03,04,15,45,6.20
2017,03,04,15,46,6.20
2017,03,04,15,47,6.10
2017,03,04,15,48,6.10
2017,03,04,15,49,6.10
2017,03,04,15,50,6.10
2017,03,04,15,51,6.10
2017,03,04,15,52,6.10
2017,03,04,15,53,6.10
2017,03,04,15,54,6.10
2017,03,04,15,55,6.10
2017,03,04,15,56,6.10
2017,03,04,15,57,6.10
2017,03,04,15,58,6.10
2017,03,04,15,59,6.10
2017,03,04,16,00,6.20
2017,03,04,16,01,6.30
2017,03,04,16,02,6.30
2017,03,04,16,03,6.30
2017,03,04,16,04,6.30
2017,03,04,16,05,6.30
2017,03,04,16,06,6.20
2017,03,04,16,07,6.20
2017,03,04,16,08,6.20
2017,03,04,16,09,6.10
2017,03,04,16,10,6.10
2017,03,04,16,11,6.00
2017,03,04,16,12,6.00
2017,03,04,16,13,5.90
2017,03,04,16,14,5.90
2017,03,04,16,15,5.90
2017,03,04,16,16,5.80
2017,03,04,16,17,5.80
2017,03,04,16,18,5.80
2017,03,04,16,19,5.80
2017,03,04,16,20,5.70
2017,03,04,16,21,5.70
2017,03,04,16,22,5.70
2017,03,04,16,23,5.70
2017,03,04,16,24,5.70
2017,03,04,16,25,5.60
2017,03,04,16,26,5.60
2017,03,04,16,27,5.70
2017,03,04,16,28,5.60
2017,03,04,16,29,5.70
2017,03,04,16,30,5.70
2017,03,04,16,31,5.70
2017,03,04,16,32,5.70
2017,03,04,16,33,5.70
2017,03,04,16,34,5.70
2017,03,04,16,35,5.70
2017,03,04,16,36,5.70
2017,03,04,16,37,5.70
2017,03,04,16,38,5.70
2017,03,04,16,39,5.70
2017,03,04,16,40,5.70
2017,03,04,16,41,5.70
2017,03,04,16,42,5.70
2017,03,04,16,43,5.70
2017,03,04,16,44,5.60
2017,03,04,16,45,5.60
2017,03,04,16,46,5.60
2017,03,04,16,47,5.60
2017,03,04,16,48,5.60
2017,03,04,16,49,5.60
2017,03,04,16,50,5.60
2017,03,04,16,51,5.60
2017,03,04,16,52,5.60
2017,03,04,16,53,5.60
2017,03,04,16,54,5.60
2017,03,04,16,55,5.60
2017,03,04,16,56,5.60
2017,03,04,16,57,5.60
2017,03,04,16,58,5.60
2017,03,04,16,59,5.60
2017,03,04,17,00,5.60
2017,03,04,17,01,5.50
2017,03,04,17,02,5.50
2017,03,04,17,03,5.50
2017,03,04,17,04,5.50
2017,03,04,17,05,5.50
2017,03,04,17,06,5.40
2017,03,04,17,07,5.40
2017,03,04,17,08,5.40
2017,03,04,17,09,5.40
2017,03,04,17,10,5.40
2017,03,04,17,11,5.40
2017,03,04,17,12,5.40
2017,03,04,17,13,5.40
2017,03,04,17,14,5.30
2017,03,04,17,15,5.30
2017,03,04,17,16,5.30
2017,03,04,17,17,5.30
2017,03,04,17,18,5.30
2017,03,04,17,19,5.30
2017,03,04,17,20,5.30
2017,03,04,17,21,5.30
2017,03,04,17,22,5.30
2017,03,04,17,23,5.30
2017,03,04,17,24,5.30
2017,03,04,17,25,5.20
2017,03,04,17,26,5.20
2017,03,04,17,27,5.20
2017,03,04,17,28,5.20
2017,03,04,17,29,5.20
2017,03,04,17,30,5.20
2017,03,04,17,31,5.20
2017,03,04,17,32,5.20
2017,03,04,17,33,5.20
2017,03,04,17,34,5.20
2017,03,04,17,35,5.20
2017,03,04,17,36,5.20
2017,03,04,17,37,5.20
2017,03,04,17,38,5.10
2017,03,04,17,39,5.10
2017,03,04,17,40,5.10
2017,03,04,17,41,5.10
2017,03,04,17,42,5.10
2017,03,04,17,43,5.10
2017,03,04,17,44,5.10
2017,03,04,17,45,5.10
2017,03,04,17,46,5.10
2017,03,04,17,47,5.10
2017,03,04,17,48,5.00
2017,03,04,17,49,5.00
2017,03,04,17,50,5.00
2017,03,04,17,51,5.00
2017,03,04,17,52,5.00
2017,03,04,17,53,5.00
2017,03,04,17,54,4.90
2017,03,04,17,55,4.90
2017,03,04,17,56,4.90
2017,03,04,17,57,4.90
2017,03,04,17,58,4.90
2017,03,04,17,59,4.90
2017,03,04,18,00,4.90
2017,03,04,18,01,4.90
2017,03,04,18,02,4.80
2017,03,04,18,03,4.80
2017,03,04,18,04,4.80
2017,03,04,18,05,4.80
2017,03,04,18,06,4.70
2017,03,04,18,07,4.70
2017,03,04,18,08,4.70
2017,03,04,18,09,4.70
2017,03,04,18,10,4.60
2017,03,04,18,11,4.60
2017,03,04,18,12,4.50
2017,03,04,18,13,4.50
2017,03,04,18,14,4.40
2017,03,04,18,15,4.40
2017,03,04,18,16,4.30
2017,03,04,18,17,4.30
2017,03,04,18,18,4.20
2017,03,04,18,19,4.20
2017,03,04,18,20,4.10
2017,03,04,18,21,4.10
2017,03,04,18,22,4.00
2017,03,04,18,23,4.00
2017,03,04,18,24,3.90
2017,03,04,18,25,3.90
2017,03,04,18,26,3.80
2017,03,04,18,27,3.80
2017,03,04,18,28,3.80
2017,03,04,18,29,3.80
2017,03,04,18,30,3.70
2017,03,04,18,31,3.70
2017,03,04,18,32,3.70
2017,03,04,18,33,3.60
2017,03,04,18,34,3.60
2017,03,04,18,35,3.60
2017,03,04,18,36,3.50
2017,03,04,18,37,3.50
2017,03,04,18,38,3.40
2017,03,04,18,39,3.40
2017,03,04,18,40,3.40
2017,03,04,18,41,3.30
2017,03,04,18,42,3.30
2017,03,04,18,43,3.30
2017,03,04,18,44,3.30
2017,03,04,18,45,3.30
2017,03,04,18,46,3.20
2017,03,04,18,47,3.20
2017,03,04,18,48,3.20
2017,03,04,18,49,3.20
2017,03,04,18,50,3.10
2017,03,04,18,51,3.10
2017,03,04,18,52,3.10
2017,03,04,18,53,3.10
2017,03,04,18,54,3.10
2017,03,04,18,55,3.00
2017,03,04,18,56,3.00
2017,03,04,18,57,2.90
2017,03,04,18,58,2.90
2017,03,04,18,59,2.90
2017,03,04,19,00,2.90
2017,03,04,19,01,2.90
2017,03,04,19,02,2.80
2017,03,04,19,03,2.80
2017,03,04,19,04,2.80
2017,03,04,19,05,2.80
2017,03,04,19,06,2.80
2017,03,04,19,07,2.70
2017,03,04,19,08,2.70
2017,03,04,19,09,2.70
2017,03,04,19,10,2.70
2017,03,04,19,11,2.70
2017,03,04,19,12,2.70
2017,03,04,19,13,2.70
2017,03,04,19,14,2.70
2017,03,04,19,15,2.60
2017,03,04,19,16,2.60
2017,03,04,19,17,2.60
2017,03,04,19,18,2.60
2017,03,04,19,19,2.60
2017,03,04,19,20,2.60
2017,03,04,19,21,2.60
2017,03,04,19,22,2.60
2017,03,04,19,23,2.60
2017,03,04,19,24,2.60
2017,03,04,19,25,2.60
2017,03,04,19,26,2.60
2017,03,04,19,27,2.50
2017,03,04,19,28,2.50
2017,03,04,19,29,2.50
2017,03,04,19,30,2.50
2017,03,04,19,31,2.50
2017,03,04,19,32,2.50
2017,03,04,19,33,2.50
2017,03,04,19,34,2.50
2017,03,04,19,35,2.40
2017,03,04,19,36,2.40
2017,03,04,19,37,2.40
2017,03,04,19,38,2.40
2017,03,04,19,39,2.40
2017,03,04,19,40,2.30
2017,03,04,19,41,2.30
2017,03,04,19,42,2.30
2017,03,04,19,43,2.30
2017,03,04,19,44,2.30
2017,03,04,19,45,2.30
2017,03,04,19,46,2.30
2017,03,04,19,47,2.30
2017,03,04,19,48,2.30
2017,03,04,19,49,2.30
2017,03,04,19,50,2.30
2017,03,04,19,51,2.30
2017,03,04,19,52,2.30
2017,03,04,19,53,2.30
2017,03,04,19,54,2.20
2017,03,04,19,55,2.30
2017,03,04,19,56,2.30
2017,03,04,19,57,2.30
2017,03,04,19,58,2.30
2017,03,04,19,59,2.20
2017,03,04,20,00,2.20
2017,03,04,20,01,2.20
2017,03,04,20,02,2.20
2017,03,04,20,03,2.20
2017,03,04,20,04,2.20
2017,03,04,20,05,2.20
2017,03,04,20,06,2.20
2017,03,04,20,07,2.30
2017,03,04,20,08,2.30
2017,03,04,20,09,2.30
2017,03,04,20,10,2.30
2017,03,04,20,11,2.30
2017,03,04,20,12,2.30
2017,03,04,20,13,2.30
2017,03,04,20,14,2.30
2017,03,04,20,15,2.40
2017,03,04,20,16,2.40
2017,03,04,20,17,2.40
2017,03,04,20,18,2.40
2017,03,04,20,19,2.40
2017,03,04,20,20,2.40
2017,03,04,20,21,2.50
2017,03,04,20,22,2.50
2017,03,04,20,23,2.50
2017,03,04,20,24,2.50
2017,03,04,20,25,2.50
2017,03,04,20,26,2.50
2017,03,04,20,27,2.50
2017,03,04,20,28,2.50
2017,03,04,20,29,2.50
2017,03,04,20,30,2.50
2017,03,04,20,31,2.50
2017,03,04,20,32,2.50
2017,03,04,20,33,2.50
2017,03,04,20,34,2.60
2017,03,04,20,35,2.60
2017,03,04,20,36,2.50
2017,03,04,20,37,2.60
2017,03,04,20,38,2.60
2017,03,04,20,39,2.60
2017,03,04,20,40,2.60
2017,03,04,20,41,2.60
2017,03,04,20,42,2.60
2017,03,04,20,43,2.70
2017,03,04,20,44,2.70
2017,03,04,20,45,2.70
2017,03,04,20,46,2.70
2017,03,04,20,47,2.80
2017,03,04,20,48,2.80
2017,03,04,20,49,2.80
2017,03,04,20,50,2.80
2017,03,04,20,51,2.80
2017,03,04,20,52,2.90
2017,03,04,20,53,2.90
2017,03,04,20,54,2.90
2017,03,04,20,55,2.90
2017,03,04,20,56,3.00
2017,03,04,20,57,3.00
2017,03,04,20,58,3.00
2017,03,04,20,59,3.00
2017,03,04,21,00,3.00
2017,03,04,21,01,3.00
2017,03,04,21,02,3.00
2017,03,04,21,03,3.00
2017,03,04,21,04,3.00
2017,03,04,21,05,3.00
2017,03,04,21,06,2.90
2017,03,04,21,07,3.00
2017,03,04,21,08,3.00
2017,03,04,21,09,2.90
2017,03,04,21,10,2.90
2017,03,04,21,11,2.90
2017,03,04,21,12,2.90
2017,03,04,21,13,2.90
2017,03,04,21,14,2.90
2017,03,04,21,15,2.90
2017,03,04,21,16,2.90
2017,03,04,21,17,3.00
2017,03,04,21,18,3.00
2017,03,04,21,19,3.00
2017,03,04,21,20,3.00
2017,03,04,21,21,3.00
2017,03,04,21,22,3.00
2017,03,04,21,23,3.00
2017,03,04,21,24,3.00
2017,03,04,21,25,3.00
2017,03,04,21,26,3.00
2017,03,04,21,27,3.00
2017,03,04,21,28,3.00
2017,03,04,21,29,3.00
2017,03,04,21,30,3.00
2017,03,04,21,31,3.00
2017,03,04,21,32,3.00
2017,03,04,21,33,2.90
2017,03,04,21,34,2.90
2017,03,04,21,35,2.90
2017,03,04,21,36,2.90
2017,03,04,21,37,2.90
2017,03,04,21,38,2.90
2017,03,04,21,39,2.90
2017,03,04,21,40,2.90
2017,03,04,21,41,2.90
2017,03,04,21,42,2.90
2017,03,04,21,43,2.90
2017,03,04,21,44,2.90
2017,03,04,21,45,2.90
2017,03,04,21,46,2.90